• Join FlightAware (Why Join?)
  • Login
  • US Flag 
04:19PM EDT


 

Airport Tracker/Info


-or-


 

Live Flight TrackerFlight Track Log ✈ UAL4335 ✈ 11-Apr-2013 ✈ KIAH - KABQ

Flight Track Log - Related Links

Times and Time Zones

All times are in EDT time to prevent confusion due to time zone crossing. See the UAL4335 flight status page for this flight to view local times or setup timezone preferences in your user account.

Time Position Orientation Groundspeed Altitude Reporting Facility
EDT Latitude Longitude Course Direction KTS MPH feet Rate Location/Type
04:59PM 29.9861 -95.3575 291° West 169 194 700  Level Houston Center
05:00PM 29.9897 -95.4272 273° West 244 281 2,100 1,740 Climbing Houston Center
05:00PM 29.9847 -95.4589 260° West 271 312 3,200 3,060 Climbing Houston Center
05:01PM 29.9806 -95.5100 265° West 256 295 5,300 3,240 Climbing Houston Center
05:01PM 29.9753 -95.5397 258° West 256 295 6,600 2,880 Climbing Houston Center
05:02PM 30.0322 -95.7896 277° West  Level FlightAware Approximate
05:02PM 29.9808 -95.5894 277° West 251 289 8,300  Level Houston Center
05:02PM 29.9878 -95.6322 281° West 259 298 9,800 2,400 Climbing Houston Center
05:03PM 30.0421 -95.9044 276° West  Level FlightAware Approximate
05:03PM 29.9956 -95.6686 284° West 253 291 10,800  Level Houston Center
05:03PM 30.0031 -95.7078 282° West 278 320 11,100 540 Climbing Houston Center
05:04PM 30.0560 -96.0181 291° West  Level FlightAware Approximate
05:04PM 30.0136 -95.7603 283° West 296 341 11,400  Level Houston Center
05:05PM 30.0369 -95.8844 282° West 330 380 13,500 1,680 Climbing Houston Center
05:06PM 30.0564 -95.9897 282° West 337 388 14,900 1,440 Climbing Houston Center
05:07PM 30.0761 -96.0928 282° West 345 397 16,500 1,440 Climbing Houston Center
05:08PM 30.0922 -96.2011 280° West 345 397 17,900 1,200 Climbing Houston Center
05:09PM 30.1125 -96.3339 280° West 351 404 19,000 1,020 Climbing Houston Center
05:10PM 30.1289 -96.4433 280° West 365 420 20,100 960 Climbing Houston Center
05:11PM 30.1464 -96.5594 280° West 365 420 21,100 720 Climbing Houston Center
05:12PM 30.1650 -96.6783 280° West 370 426 21,700 540 Climbing Houston Center
05:13PM 30.1867 -96.8239 280° West 385 443 22,300 600 Climbing Houston Center
05:14PM 30.2056 -96.9475 280° West 387 445 23,000 720 Climbing Houston Center
05:15PM 30.2236 -97.0731 279° West 390 449 23,800 720 Climbing Houston Center
05:16PM 30.2419 -97.1975 280° West 389 448 24,600 720 Climbing Houston Center
05:17PM 30.2600 -97.3214 280° West 387 445 25,300 720 Climbing Houston Center
05:18PM 30.2778 -97.4447 280° West 385 443 26,100 720 Climbing Houston Center
05:19PM 30.2961 -97.5675 280° West 381 438 26,900 720 Climbing Houston Center
05:20PM 30.3125 -97.6894 279° West 379 436 27,700 780 Climbing Houston Center
05:21PM 30.3383 -97.8289 282° West 375 432 28,600 780 Climbing Houston Center
05:23PM 30.3708 -97.9433 288° West 369 425 29,400 720 Climbing Houston Center
05:24PM 30.4025 -98.0597 288° West 373 429 30,200 720 Climbing Houston Center
05:25PM 30.4372 -98.1769 289° West 378 435 31,000 720 Climbing Houston Center
05:26PM 30.4711 -98.2961 288° West 382 440 31,700 780 Climbing Houston Center
05:27PM 30.5042 -98.4144 288° West 383 441 32,700 900 Climbing Houston Center
05:28PM 30.5367 -98.5317 288° West 379 436 33,600 600 Climbing Houston Center
05:29PM 30.5756 -98.6694 288° West 381 438 34,000 180 Climbing Houston Center
05:30PM 30.6092 -98.7892 288° West 385 443 34,000  Level Houston Center
05:31PM 30.6428 -98.9083 288° West 385 443 34,000  Level Houston Center
05:32PM 30.6756 -99.0286 288° West 386 444 34,000 -60 Level Houston Center
05:33PM 30.7094 -99.1481 288° West 384 442 33,900  Descending Houston Center
05:34PM 30.7422 -99.2658 288° West 384 442 34,000  Climbing Houston Center
05:35PM 30.7742 -99.3844 287° West 384 442 34,000  Level Houston Center
05:36PM 30.8108 -99.5244 287° West 378 435 34,000  Level Houston Center
05:37PM 30.8442 -99.6431 288° West 387 445 34,000  Level Houston Center
05:38PM 30.8764 -99.7619 288° West 386 444 34,000  Level Houston Center
05:39PM 30.9083 -99.8817 287° West 389 448 34,000  Level Houston Center
05:40PM 30.9394 -100.0006 287° West 385 443 34,000  Level Houston Center
05:41PM 30.9775 -100.1433 287° West 387 445 34,000  Level Houston Center
05:42PM 31.0106 -100.2625 288° West 391 450 34,000  Level Houston Center
05:43PM 31.0411 -100.3819 287° West 387 445 34,000  Level Houston Center
05:44PM 31.0833 -100.4975 293° West 387 445 34,000  Level Houston Center
05:45PM 31.1456 -100.6025 305° West 381 438 34,000 -60 Level Fort Worth Center
05:46PM 31.2119 -100.7044 307° West 393 452 33,900  Descending Fort Worth Center
05:47PM 31.2844 -100.8017 311° West 393 452 34,000  Climbing Fort Worth Center
05:48PM 31.3569 -100.8992 311° West 393 452 34,000  Level Fort Worth Center
05:48PM 31.3708 -100.9144 317° Northwest 398 458 34,000  Level Albuquerque Center
05:49PM 31.4314 -100.9969 311° West 393 452 34,000  Level Fort Worth Center
05:50PM 31.5039 -101.0972 310° West 398 458 34,000  Level Fort Worth Center
05:51PM 31.5761 -101.1953 311° West 398 458 34,000  Level Fort Worth Center
05:52PM 31.6522 -101.2958 312° West 398 458 34,000  Level Fort Worth Center
05:53PM 31.7203 -101.3917 310° West 393 452 34,000  Level Fort Worth Center
05:54PM 31.7964 -101.4950 311° West 403 464 34,000  Level Fort Worth Center
05:55PM 31.8681 -101.5936 311° West 403 464 34,000  Level Fort Worth Center
05:56PM 31.9419 -101.6950 311° West 403 464 34,000  Level Fort Worth Center
05:57PM 32.0117 -101.7939 310° West 397 457 34,000  Level Fort Worth Center
05:58PM 32.0911 -101.9056 310° West 405 466 34,000  Level Fort Worth Center
05:59PM 32.1628 -102.0072 310° West 405 466 34,000  Level Fort Worth Center
06:00PM 32.2342 -102.1064 310° West 400 460 34,000  Level Fort Worth Center
06:01PM 32.3056 -102.2061 310° West 400 460 34,000  Level Fort Worth Center
06:02PM 32.3767 -102.3083 309° West 400 460 34,000  Level Fort Worth Center
06:03PM 32.4519 -102.4108 311° West 406 467 34,000  Level Fort Worth Center
06:04PM 32.5253 -102.5108 311° West 406 467 34,000  Level Fort Worth Center
06:05PM 32.5881 -102.6056 308° West 401 461 34,000  Level Fort Worth Center
06:06PM 32.6611 -102.7061 311° West 401 461 34,000  Level Fort Worth Center
06:07PM 32.7319 -102.8092 309° West 401 461 34,000  Level Fort Worth Center
06:08PM 32.8047 -102.9072 311° West 401 461 34,000  Level Fort Worth Center
06:09PM 32.8714 -103.0078 308° West 396 456 34,000  Level Fort Worth Center
06:11PM 33.0083 -103.2042 310° West 396 456 34,000  Level Albuquerque Center
06:12PM 33.0775 -103.3022 310° West 390 449 34,000  Level Albuquerque Center
06:13PM 33.1467 -103.4025 309° West 390 449 34,000  Level Albuquerque Center
06:14PM 33.2150 -103.5036 309° West 391 450 34,000  Level Albuquerque Center
06:15PM 33.2836 -103.6014 310° West 387 445 34,000  Level Albuquerque Center
06:16PM 33.3706 -103.7233 311° West 393 452 34,000  Level Albuquerque Center
06:17PM 33.4381 -103.8233 309° West 390 449 34,000  Level Albuquerque Center
06:18PM 33.5106 -103.9308 309° West 388 447 34,000  Level Albuquerque Center
06:19PM 33.5786 -104.0311 309° West 389 448 34,000  Level Albuquerque Center
06:20PM 33.6522 -104.1392 309° West 390 449 34,000  Level Albuquerque Center
06:21PM 33.7206 -104.2406 309° West 392 451 34,000  Level Albuquerque Center
06:23PM 33.7950 -104.3506 309° West 396 456 34,000  Level Albuquerque Center
06:24PM 33.8636 -104.4531 309° West 395 455 34,000  Level Albuquerque Center
06:25PM 33.9317 -104.5553 309° West 393 452 34,000  Level Albuquerque Center
06:26PM 34.0047 -104.6631 309° West 388 447 34,000  Level Albuquerque Center
06:27PM 34.0733 -104.7633 310° West 389 448 34,000  Level Albuquerque Center
06:28PM 34.1403 -104.8661 308° West 387 445 34,000  Level Albuquerque Center
06:29PM 34.2086 -104.9686 309° West 388 447 34,000  Level Albuquerque Center
06:30PM 34.2772 -105.0711 309° West 388 447 34,000  Level Albuquerque Center
06:31PM 34.3453 -105.1733 309° West 387 445 34,000 -840 Level Albuquerque Center
06:32PM 34.4125 -105.2767 308° West 387 445 32,400 -1,920 Descending Albuquerque Center
06:33PM 34.4925 -105.3975 309° West 387 445 30,100 -2,100 Descending Albuquerque Center
06:34PM 34.5614 -105.5036 308° West 393 452 28,100 -2,340 Descending Albuquerque Center
06:35PM 34.6336 -105.6122 309° West 404 465 25,300 -2,700 Descending Albuquerque Center
06:36PM 34.6872 -105.6992 307° West 391 450 23,100 -2,460 Descending Albuquerque Center
06:36PM 34.7078 -105.7297 309° West 385 443 22,500 -2,460 Descending Albuquerque Center
06:37PM 34.7764 -105.8358 308° West 402 463 19,900 -2,340 Descending Albuquerque Center
06:38PM 34.8383 -105.9269 310° West 395 455 18,000 -2,280 Descending Albuquerque Center
06:39PM 34.8978 -106.0203 308° West 365 420 15,500 -2,640 Descending Albuquerque Center
06:40PM 34.9544 -106.1103 308° West 344 396 12,700 -2,640 Descending Albuquerque Center
06:41PM 34.9806 -106.2350 284° West 311 358 10,100 -1,500 Descending Albuquerque Center
06:42PM 35.0025 -106.3042 291° West 299 344 9,600 -600 Descending Albuquerque Center
06:43PM 35.0214 -106.3989 284° West 259 298 8,900 -720 Descending Albuquerque Center